Torna al catalogo

DELTA 1 DEB

AttivoSSO
NORAD 2977·DEBRIS·🇺🇸 United States

Lanciato Apr 20, 1967 da Vandenberg Space Force Base

Loading…

Prossimi Passaggi (prossime 24 ore)

TLE

AggiornatoSource: Space-Track

Epoca: Sep 14, 2026, 09:09 UTC

1 02977U 67036D   26257.38177225 -.00000035  00000-0  55852-4 0  9992
2 02977 101.6285 220.0061 0059962  93.4671  59.5738 12.56869378724591

Traccia DELTA 1 DEB in tempo reale con AllMySat

Download on the App Store